sat.trackr.live / text

‹ back to catalog

STARLINK-34573

NORAD 64676 · 2025-139N

PAYLOAD ACTIVE UNKNOWN

§ Identity

Operator
Country
US
Launch date
2025-06-28
Launch site
AFETR
Launch vehicle
Mass (kg)
RCS (m²)

Purposes: comms

External: N2YO · Heavens-Above · Gunter

§ Orbital elements

Epoch: 2026-05-25T03:07:45.207840Z

Period
93.85 min
Inclination
53.1576°
Eccentricity
0.0001381
Mean motion
15.34393033 rev/d
Perigee alt
461.8 km
Apogee alt
463.7 km
Semi-major
6,840.9 km
B*
5.7830e-4
RAAN
130.8341°
Arg perigee
103.6764°
Mean anomaly
256.4392°
Rev number
5,200

§ Raw data

STARLINK-345731 64676U 25139N   26145.13038435  .00019208  00000+0  57830-3 0  99992 64676  53.1576 130.8341 0001381 103.6764 256.4392 15.34393033 52000

JSON: /api/v1/satellites/64676 · /tle

For live sub-satellite position, see the globe view (requires WebGL).

§ Visibility from observer

Set your observer location to see the next 7 days of passes ≥ 10°. The values pass through the URL so the page stays shareable.

No JS? Fill the form by hand. The geolocation button needs JavaScript.